Tracking 28125 objects as of 4-Oct-2023
HD Live streaming from Space Station
objects crossing your sky now

COSMOS 339

Track COSMOS 339 now!
10-day predictions
COSMOS 339 is classified as:


NORAD ID: 4386
Int'l Code: 1970-036D
Perigee: 1,451.8 km
Apogee: 1,476.0 km
Inclination: 74.0 °
Period: 115.0 minutes
Semi major axis: 7834 km
RCS: 0.7395 m2 (medium)
Launch date: April 25, 1970
Source: Commonwealth of Independent States (former USSR) (CIS)
Launch site: PLESETSK MISSILE AND SPACE COMPLEX (PKMTR)
Your satellite tracking list
Your tracking list is empty




NASA's NSSDC Master Catalog

Two Line Element Set (TLE):
1 04386U 70036D   23276.77290954  .00000008  00000-0  15240-3 0  9993
2 04386  74.0330  17.1503 0015437 204.6644 273.8654 12.51848623441838
Source of the keplerian elements: AFSPC